User: anonymous   Login
Location: Unspecified
(0.0000°N, 0.0000°E)
Time: 18:36:47
(UTC+00:00)
Language:

JASON 3 - Orbit

View from above orbital plane
View from above orbital plane
View from above satellite
View from above satellite

Ground track
Ground track

The orbit data is extracted from the following two-line orbital elements,

1 41240U 16002A   19107.90187689 -.00000047 +00000-0 +61213-4 0  9995
2 41240 066.0393 171.1222 0008053 273.7526 086.2568 12.80929010151929
Epoch (UTC): 17 April 2019 21:38:42
Eccentricity: 0.0008053
inclination: 66.0393°
perigee height: 1331 km
apogee height: 1344 km
right ascension of ascending node: 171.1222°
argument of perigee: 273.7526°
revolutions per day: 12.80929010
mean anomaly at epoch: 86.2568°
orbit number at epoch: 15192

The dashed part of the orbit path shows where the satellite is in the earth's shadow,  

DLR